Tracking 19706 objects as of 16-Jun-2019
HD Live streaming from Space Station
objects crossing your sky now

COSMOS 1348

Track COSMOS 1348 now!
COSMOS 1348 is classified as:


NORAD ID: 13124
Int'l Code: 1982-029A
Perigee: 8,161.4 km
Apogee: 32,250.6 km
Inclination: 71.8 °
Period: 718.7 minutes
Semi major axis: 26577 km
RCS: 16.1516 m2 (large)
Launch date: April 7, 1982
Source: Commonwealth of Independent States (former USSR) (CIS)
Launch site: PLESETSK MISSILE AND SPACE COMPLEX (PKMTR)
aabbcc
Your satellite tracking list
Your tracking list is empty




NASA's NSSDC Master Catalog

Two Line Element Set (TLE):
1 13124U 82029A   19166.92036785  .00000078  00000-0  00000+0 0  9999
2 13124  71.8384 239.8178 4531964  47.2586 285.3050  2.00374984272131
Source of the keplerian elements: AFSPC